Погода Нижний Тагил

Погода Нижний Тагил : погода сейчас, прогноз погоды и архив. Всё, что Вы хотите узнать о погоде Нижний Тагил!

Хотите узнать прогноз погоды Нижний Тагил? Тогда Вам сюда: Погода Нижний Тагил

Поиск расширенной информации на нашем сайте:

Другие новости

Новости СМИ2

Главная страница сайта

Новости сайта

02.10.2013

Напоминаем, что на нашем новом сайте вы можете получить высокодетализированные прогнозы погоды по пунктам России, СНГ и мира (включающие важные для авиации метеовеличины, такие как направление и скорость ветра, видимость, явления погоды, количество и форма облачности, нижняя и верхняя граница облачности), а также ознакомиться с разнообразными материалами по авиационной метеорологии и подборкой полезных ссылок на эту тему.

Сайт Метеоцентр.Азия посвящён разработке технологий оптимизации авиаметеорологического обслуживания, включая проектирование и перспективное создание нескольких автоматизированных авиаметеорологических систем:
- система выпуска высокодетальных прогностических карт явлений погоды для нижнего воздушного пространства по России и ближнему зарубежью;
- система верификации прогнозов TAF (выпускаемых синоптиками официальных АМСГ РФ и ближнего зарубежья) и AUTOTAF (выпускаемых сайтом Метеоцентр.Азия) - выявление ошибок, онлайн-сопоставление с фактической погодой METAR, автоматическое внесение коррективов в прогнозы при резком отклонении фактической погоды от прогноза, подсчёт оправдываемости прогнозов по элементам и в целом;
- система обработки, анализа и отображения авиаметеорологической информации для применения провайдерами метеорологической информации.

Рекомендуем: Сравнить цены на лазерная гравировка.

Погода Нижний Тагил - сегодня

Время (UTC), дата Ветер
(°,м/с) 
Видим.   Явления Облачность Т
(°С)
Тd
(°С)
f(%) Тe
(°С)
Pmin
(гПа)
dP
(гПа)
Po
(мм)
O2
(г/м3)
Тmin Tmax R s Состояние
почвы
18 27.03.17 190 (Ю) 20000 м  {снег}  3/3 600 м 
[Sc]
-2.4 -4.2 87 -4  1002.7  0.1  728  296           
21 27.03.17 200 (Ю) 20000 м    8/5 600 м средняя 
[Sc|Ac trans]
-3.2 -5 87 -4  1002  -0.8  727  297           
00 28.03.17 180 (Ю) 20000 м    3/3 600 м 
[Sc]
-4 -5.4 90 -5  1001  -1  726  298           
03 28.03.17 170 (Ю) 20000 м    6/4 600 м верхняя 
[Sc|Cc]
-3.8 -5.6 87 -7  1000.1  -0.8  726  297  -4.3      39  равномерный
сухой снег
100% 
06 28.03.17 190 (Ю) 20000 м    10/8 600 м средняя 
[Sc|As op]
+0.1 -5.4 66 -2  997.6  -2  724  292           
09 28.03.17 150 (ЮВ) 5{12}  20000 м  {снег}  10/10 600 м 
[Sc]
+0.1 -2.8 81 -3  995.5  -2.1  723  291           
12 28.03.17 150 (ЮВ) 20000 м  {снег}  10/10 600 м кучево-дожд. 
[Cb cap]
+1.2 -1.8 80 -1  993.2  -2.1  721  289           
15 28.03.17 170 (Ю) 2{10}  20000 м  в посл. час снег  10/10 600 м 
[Sc]
-0.6 -1.1 96 -1  992.5  -0.9  721  291    +1.7  0.0     
18 28.03.17 180 (Ю) 20000 м  {снег}  8/5 600 м средняя 
[Sc|As op]
-1.1 -2.9 88 -2  991.6  -0.9  720  292           
21 28.03.17 220 (ЮЗ) 20000 м  в посл. час снег  8/0 средняя 
[As op]
-2.1 -2.7 96 -3  991.1  -0.6  719  292           
00 29.03.17 200 (Ю) 20000 м  {снег}  6/0 средняя 
[As op]
-2.3 -3.2 94 -2  991.2  719  293           
03 29.03.17 190 (Ю) 20000 м  {снег}  8/6 600 м средняя 
[Sc|As op]
-1.5 -2.8 91 -2  992.4  1.3  720  292  -2.5    0.6  39  равномерный
мокрый или
старый снег
100% 
06 29.03.17 230 (ЮЗ) 20000 м  {снег}  9/9 600 м кучево-дожд. 
[Cb cap]
+0.5 -4.8 68 -2  993.2  721  291           
09 29.03.17 250 (З) 20000 м    8/8 600 м кучево-дожд. 
[Cb cap]
+1.9 -6.3 54 993.4  0.4  722  289           
12 29.03.17 190 (Ю) 3{10}  20000 м    5/5 600 м 
[Sc]
+3.6 -8.1 42 +2  992.5  -0.7  721  287           
15 29.03.17 100 (В) 20000 м    8/0 средняя 
[Ac lent]
-0.2 -5.4 68 -1  992.4  -0.6  721  291    +3.9       
18 29.03.17 110 (В) 20000 м    4/0 верхняя 
[Cc]
-0.3 -2.9 83 -1  991.5  -0.9  720  291           
21 29.03.17 010 (С) 20000 м    10/0 средняя 
[Ac lent]
-1.1 -2.8 88 -2  989.5  -2  718  291           
00 30.03.17 350 (С) 20000 м    10/0 средняя 
[Sc|Ac lent]
-2.6 -3.2 96 -5  988  -1.6  717  292           
03 30.03.17 350 (С) 6{10}  2000 м  слаб. ливневой снег  10/10 600 м кучево-дожд. 
[Cb cap]
-2.6 -3.1 96 -7  987.2  -0.7  717  292  -2.9    39  равномерный
мокрый или
старый снег
100% 
06 30.03.17 340 (С) 6-10{11}  2000 м  слаб. ливневой снег  10/10 600 м кучево-дожд. 
[Cb cap]
-2.2 -3.6 90 -6  987.6  0.4  717  292           
09 30.03.17 320 (СЗ) 6{11}  2000 м  слаб. ливневой снег  10/10 600 м кучево-дожд. 
[Cb cap]
-1.3 -3.3 86 -5  989.8  2.3  719  291           
12 30.03.17 300 (СЗ) 4{11}  4000 м  дымка{ливн. осадки}  10/8 600 м средняя 
[Sc|As op]
-1 -2.8 88 -4  992.8  2.9  721  292           
15 30.03.17 290 (З) 6{13}  20000 м  в посл. час снег  10/0 средняя 
[As op]
-3 -6.1 79 -7  997.4  4.2  724  296    -0.8     
18 30.03.17 280 (З) 6{12}  20000 м  {снег}  8/0 средняя 
[Ac lent]
-4.1 -7.5 77 -8  1000.9  3.2  726  298           
Время (UTC), дата Ветер
(°,м/с) 
Видим.   Явления Облачность Т
(°С)
Тd
(°С)
f(%) Тe
(°С)
Pmin
(гПа)
dP
(гПа)
Po
(мм)
O2
(г/м3)
Тmin Tmax R s Состояние
почвы

Для получения пояснительной информации подведите курсор к названию столбца.

ПОГОДА Нижний Тагил - архив

Всё, что Вы хотите узнать о погоде Нижний Тагил - удобно и подробно!

Выберите нужную дату (начиная с 1 января 2015* года) и нажмите кнопку "Найти".
Будут отображены архивные сводки погоды по пункту Нижний Тагил, начиная с указанной даты.


Отображать данные в формате CSV (для использования в таблицах Excel)


Внимание! Наш архив погоды предназначен исключительно для личного некоммерческого использования в познавательных целях. Если Вам необходимы официальные справки о состоянии погоды (для производственных, юридических, коммерческих и т.п. целей), обращайтесь в органы Росгидромета.

*Примечание: данная дата относится к архиву по метеостанциям СССР (Россия, СНГ, Балтия).
Архив по метеостанциям Зарубежной Европы и Азии (кроме Китая) хранится 10 дней, по другим регионам земного шара (Китай, Африка, Америка, Австралия, Океания) - 1 день.

Нижний Тагил - район местоположения метеостанции


Название, широта, долгота, высота метеостанции:
Нижний Тагил 57.9°ш. 60.1°д. 260 м над ур. моря [Российская Федерация]

Дополнительная информация

В oтличие oт бoльшинства пoгoдных сайтoв мы публикуем пoдрoбную метеoинфoрмацию в детальнoм прoфессиoнальнoм фoрмате.

Характеристики температуры и влажнoсти вoздуха измеряются на высoте 2 м в тени вдали oт зданий и деревьев.
Скoрoсть ветра измеряется на высoте 10 м (на урoвне рoста челoвека скoрoсть ветра ниже в 1.5-2 раза). Если метеoстанция нахoдится в гoрoде или в лесу, тo скoрoсть ветра занижена на 2-4 м/с пo сравнению с oткрытым местoм. Скoрoсть ветра над акватoриями крупных рек и oзёр, а также на вершинах хoлмoв на 2-5 м/с выше, чем в oбычных услoвиях.
Атмoсфернoе давление в разных тoчках местнoсти мoжет значительнo oтличаться oт давления на метеoстанции, в зависимoсти oт услoвий рельефа (при пoдъёме на 10 м давление пoнижается примернo на 1 мм рт.ст.).